[[{"header":{"parameterUnit":"m.s-1","parameterCategory":1,"la1":30.2992,"la2":30.254,"lo1":-89.0895,"lo2":-89.0443,"dy":0.0025,"dx":0.0025,"nx":19,"ny":19,"refTime":"2026-05-19T09:00:00:Z","depth":0,"parameterNumber":2,"parameterNumberName":"U-component_of_WINDS"},"data":[0,0,0,-3.3763,-3.3765,-3.3834,-3.3835,-3.3934,-3.3935,0,0,0,0,0,0,0,0,0,0,0,-3.3749,-3.375,-3.3763,-3.3765,-3.3834,-3.3835,-3.3934,-3.3935,0,0,0,0,0,0,0,0,0,0,0,-3.3748,-3.3749,-3.3751,-3.3765,-3.3834,-3.3835,-3.3933,-3.3877,0,0,0,0,0,0,0,0,0,0,-3.3808,-3.3801,-3.3749,-3.3751,-3.3766,-3.3834,-3.3835,-3.3874,-3.3881,-3.3907,0,-3.3932,0,-3.3935,-3.3942,-3.3943,0,0,0,-3.376,-3.3796,-3.3809,-3.3751,-3.3766,-3.3834,-3.3802,-3.3878,-3.3885,-3.3915,-3.3933,-3.3936,-3.3937,-3.3943,-3.3943,-3.4109,-3.411,0,0,-3.3756,-3.3765,-3.3804,-3.3814,-3.3804,-3.38,-3.3804,-3.3882,-3.3902,-3.3933,-3.3938,-3.3938,-3.3944,-3.3944,-3.4108,-3.4109,0,0,0,-3.3748,-3.3762,-3.3773,-3.381,-3.3822,-3.3802,-3.3807,-3.3898,-3.3901,-3.3939,-3.3939,-3.3944,-3.3946,-3.4107,-3.4108,-3.4165,0,0,0,-3.3746,-3.3757,-3.3772,-3.3777,-3.382,-3.3861,-3.3821,-3.3896,-3.3904,-3.3939,-3.3944,-3.3947,-3.4106,-3.4108,-3.4161,-3.419,0,0,0,-3.3742,-3.3757,-3.3769,-3.3778,-3.3808,-3.3859,-3.3867,-3.3897,-3.3905,-3.3943,-3.3947,-3.4105,-3.4107,-3.4157,-3.4184,-3.4235,0,0,0,-3.374,-3.3819,-3.377,-3.3858,-3.3807,-3.3894,-3.3866,-3.393,-3.397,-3.3945,-3.4106,-3.4108,-3.4156,-3.418,-3.4231,-3.4279,-3.4299,0,0,-3.3844,-3.3831,-3.3882,-3.3841,-3.3938,-3.3883,-3.3989,-3.4017,-3.4013,-3.4077,-3.4081,-3.4162,-3.4183,-3.4234,-3.4415,-3.4432,0,0,0,-3.3918,-3.3954,-3.3978,-3.4016,-3.404,-3.4063,-3.4074,-3.4085,-3.4139,-3.4048,-3.4195,-3.4207,-3.4237,-3.4259,-3.4273,-3.4297,-3.4119,-3.4119,-3.4119,-3.4075,-3.4066,-3.415,-3.4149,-3.4187,-3.4198,-3.4227,-3.4243,-3.4223,-3.4259,-3.4277,-3.4388,-3.4414,-3.4425,-3.445,-3.4302,-3.4302,-3.4303,-3.4303,-3.4225,-3.4275,-3.4247,-3.4318,-3.4308,-3.4368,-3.4382,-3.4366,-3.442,-3.4373,-3.4398,-3.4347,-3.4443,-3.4465,-3.4307,-3.4306,-3.4306,-3.4305,-3.4305,-3.4326,-3.4348,-3.436,-3.4414,-3.4457,-3.4454,-3.4507,-3.4497,-3.4487,-3.4512,-3.453,-3.4529,-3.4526,-3.4522,-3.4522,-3.4523,-3.4523,-3.4523,-3.4524,-3.4426,-3.4437,-3.4483,-3.4515,-3.4538,-3.4567,-3.458,-3.4602,-3.4624,-3.4612,-3.4612,-3.4589,-3.4455,-3.442,-3.453,-3.4528,-3.4528,-3.4527,-3.4527,-3.4579,-3.4543,-3.4613,-3.4637,-3.4673,-3.4716,-3.4703,-3.4749,-3.4766,-3.4793,-3.4764,-3.4667,-3.4653,-3.4642,-3.4614,-3.4766,-3.4766,-3.4766,-3.4766,-3.4663,-3.4656,-3.4726,-3.4763,-3.4799,-3.4794,-3.4874,-3.4885,-3.489,-3.49,-3.4877,-3.4839,-3.4828,-3.4821,-3.4806,-3.4779,-3.497,-3.497,-3.497,-3.4757,-3.4752,-3.4822,-3.4827,-3.4855,-3.488,-3.4954,-3.4999,-3.4998,-3.4978,-3.4908,-3.4899,-3.4837,-3.4818,-3.4796,-3.4772,-3.4723,0,0]},{"header":{"parameterUnit":"m.s-1","parameterCategory":1,"la1":30.2992,"la2":30.254,"lo1":-89.0895,"lo2":-89.0443,"dy":0.0025,"dx":0.0025,"nx":19,"ny":19,"refTime":"2026-05-19T09:00:00:Z","depth":0,"parameterNumber":3,"parameterNumberName":"V-component_of_WINDS"},"data":[0,0,0,2.2092,2.2094,2.2171,2.2171,2.2269,2.227,0,0,0,0,0,0,0,0,0,0,0,2.207,2.207,2.2092,2.2094,2.2171,2.2171,2.2269,2.227,0,0,0,0,0,0,0,0,0,0,0,2.2069,2.207,2.2071,2.2094,2.2171,2.2171,2.2269,2.2211,0,0,0,0,0,0,0,0,0,0,2.2136,2.2116,2.207,2.2071,2.2095,2.2171,2.2171,2.2208,2.2214,2.2234,0,2.2253,0,2.2263,2.2277,2.2277,0,0,0,2.2094,2.211,2.2131,2.2071,2.2096,2.2171,2.2136,2.2212,2.2219,2.2243,2.2254,2.2258,2.2265,2.2277,2.2278,2.2396,2.2397,0,0,2.209,2.2083,2.2126,2.2136,2.2124,2.2134,2.2139,2.2216,2.2227,2.2254,2.226,2.2266,2.2278,2.2279,2.2396,2.2396,0,0,0,2.2078,2.208,2.2099,2.2132,2.2146,2.2136,2.2141,2.2224,2.2231,2.2261,2.2267,2.2279,2.228,2.2395,2.2396,2.2419,0,0,0,2.2075,2.2074,2.2097,2.2094,2.2144,2.2186,2.2148,2.2225,2.2234,2.2267,2.2279,2.2281,2.2395,2.2396,2.2417,2.2431,0,0,0,2.2065,2.2072,2.2084,2.2094,2.2127,2.2185,2.2196,2.2227,2.2238,2.2277,2.2281,2.2394,2.2395,2.2416,2.2429,2.2462,0,0,0,2.2052,2.2102,2.2084,2.2143,2.2126,2.2199,2.2195,2.2249,2.2285,2.2279,2.2395,2.2396,2.2415,2.2427,2.246,2.249,2.2501,0,0,2.2112,2.2109,2.2144,2.213,2.2205,2.2187,2.2265,2.2303,2.2312,2.2367,2.237,2.2418,2.2428,2.2462,2.2567,2.2576,0,0,0,2.2161,2.2187,2.2208,2.2242,2.2274,2.2302,2.2329,2.2343,2.2391,2.2339,2.2439,2.2445,2.2465,2.2479,2.2487,2.2505,2.2402,2.2402,2.2402,2.2238,2.2247,2.2307,2.2326,2.236,2.2388,2.2416,2.244,2.2439,2.2462,2.2479,2.2542,2.2559,2.2565,2.2583,2.2495,2.2495,2.2495,2.2495,2.2328,2.2366,2.2364,2.2421,2.2431,2.2479,2.2509,2.2506,2.2552,2.253,2.2547,2.2522,2.2574,2.2591,2.2497,2.2497,2.2496,2.2496,2.2496,2.238,2.24,2.2417,2.247,2.2509,2.2526,2.2571,2.2578,2.2584,2.2602,2.2621,2.2621,2.2622,2.2611,2.2611,2.2611,2.2611,2.2611,2.2612,2.2427,2.2446,2.2484,2.2522,2.2546,2.2578,2.2608,2.2632,2.266,2.2661,2.2661,2.2659,2.2577,2.2557,2.2615,2.2614,2.2614,2.2614,2.2613,2.2516,2.2498,2.2555,2.258,2.2626,2.2666,2.2674,2.2722,2.2742,2.2765,2.2758,2.2697,2.2694,2.2688,2.2671,2.2755,2.2755,2.2755,2.2755,2.2561,2.2561,2.2622,2.2661,2.2699,2.2713,2.2779,2.2803,2.2824,2.2838,2.2827,2.2805,2.2799,2.28,2.2791,2.2776,2.2885,2.2885,2.2885,2.2617,2.2621,2.2676,2.2697,2.2735,2.2766,2.2829,2.2873,2.2893,2.289,2.2849,2.2843,2.2809,2.2797,2.2793,2.278,2.2752,0,0]}]]